TimeCST,TemperatureF,Dew PointF,Humidity,Sea Level PressureIn,VisibilityMPH,Wind Direction,Wind SpeedMPH,Gust SpeedMPH,PrecipitationIn,Events,Conditions,WindDirDegrees,DateUTC
12:53 AM,34.0,32.0,92,30.03,9.0,South,4.6,-,N/A,,Clear,180,2013-02-14 06:53:00
1:53 AM,33.1,30.0,89,30.03,7.0,South,3.5,-,N/A,,Clear,170,2013-02-14 07:53:00
2:53 AM,32.0,30.0,92,30.02,8.0,SSE,4.6,-,N/A,,Clear,160,2013-02-14 08:53:00
3:53 AM,30.9,30.0,96,30.02,7.0,SSE,4.6,-,N/A,,Clear,160,2013-02-14 09:53:00
4:53 AM,32.0,30.0,92,30.01,8.0,South,3.5,-,N/A,,Clear,180,2013-02-14 10:53:00
5:53 AM,30.9,28.9,92,30.01,9.0,South,5.8,-,N/A,,Clear,180,2013-02-14 11:53:00
6:53 AM,33.1,30.0,89,30.02,9.0,South,6.9,-,N/A,,Clear,170,2013-02-14 12:53:00
7:53 AM,37.0,34.0,89,30.04,10.0,SSW,6.9,-,N/A,,Clear,210,2013-02-14 13:53:00
8:53 AM,43.0,36.0,76,30.05,10.0,South,8.1,-,N/A,,Clear,190,2013-02-14 14:53:00
9:53 AM,48.0,37.0,66,30.03,10.0,SSW,9.2,-,N/A,,Clear,210,2013-02-14 15:53:00
10:53 AM,52.0,35.1,53,30.02,10.0,WSW,11.5,16.1,N/A,,Clear,250,2013-02-14 16:53:00
11:53 AM,55.0,35.1,47,30.00,10.0,SW,12.7,-,N/A,,Clear,230,2013-02-14 17:53:00
12:53 PM,57.9,32.0,37,29.98,10.0,WSW,10.4,19.6,N/A,,Partly Cloudy,250,2013-02-14 18:53:00
1:53 PM,60.1,30.9,33,29.97,10.0,WSW,9.2,21.9,N/A,,Partly Cloudy,240,2013-02-14 19:53:00
2:53 PM,61.0,28.9,30,29.96,10.0,SW,11.5,18.4,N/A,,Scattered Clouds,230,2013-02-14 20:53:00
3:53 PM,61.0,27.0,27,29.98,10.0,West,5.8,19.6,N/A,,Scattered Clouds,270,2013-02-14 21:53:00
4:53 PM,59.0,28.0,31,29.99,10.0,West,6.9,-,N/A,,Scattered Clouds,280,2013-02-14 22:53:00
5:53 PM,55.9,28.0,34,30.00,10.0,SW,3.5,-,N/A,,Scattered Clouds,230,2013-02-14 23:53:00
6:53 PM,53.1,28.9,40,30.00,10.0,SSW,4.6,-,N/A,,Clear,210,2013-02-15 00:53:00
7:53 PM,50.0,28.9,44,30.01,10.0,SSW,4.6,-,N/A,,Clear,210,2013-02-15 01:53:00
8:53 PM,46.0,30.0,54,30.02,10.0,SSW,3.5,-,N/A,,Partly Cloudy,200,2013-02-15 02:53:00
9:53 PM,45.0,30.9,58,30.03,10.0,South,3.5,-,N/A,,Clear,180,2013-02-15 03:53:00
10:53 PM,41.0,32.0,70,30.02,10.0,South,4.6,-,N/A,,Clear,170,2013-02-15 04:53:00
11:53 PM,41.0,30.9,67,30.03,10.0,South,4.6,-,N/A,,Clear,180,2013-02-15 05:53:00